Temp
-8 -8 -8 -8 -8 -8 -9 -9 -9 -9 -9 -9 -9 -9 -9 -10 -10 -10 -10 -10 -10 -10 -10 -10 -10 -10 -10 -10 -10 -10 -10 -10 -10 -10 -10 -10 -10 -10 -10 -10 -10 -10 -10 -10 -9 -9 -9 -9 -9
-8 -8 -8 -9 -9 -8 -9 -9 -9 -9 -9 -9 -9 -10 -10 -10 -10 -10 -10 -10 -10 -10 -10 -10 -10 -10 -10 -10 -10 -10 -10 -10 -10 -10 -11 -10 -10 -10 -10 -10 -9 -10 -9 -9 -9 -9 -9 -9 -9
-9 -8 -8 -9 -9 -9 -9 -9 -9 -9 -9 -9 -9 -9 -9 -9 -9 -10 -10 -10 -10 -10 -10 -10 -10 -10 -10 -10 -10 -10 -10 -10 -10 -10 -10 -10 -11 -11 -11 -11 -10 -10 -10 -10 -9 -9 -9 -9 -9
-9 -9 -9 -9 -9 -9 -9 -9 -9 -9 -9 -9 -9 -9 -10 -10 -10 -10 -10 -10 -10 -10 -10 -10 -10 -10 -10 -10 -10 -10 -10 -10 -10 -10 -10 -10 -10 -10 -10 -10 -10 -10 -10 -10 -10 -10 -9 -9 -9
-9 -9 -9 -9 -9 -9 -9 -9 -10 -10 -9 -10 -9 -9 -10 -10 -10 -10 -10 -10 -10 -10 -10 -10 -10 -10 -10 -10 -10 -10 -10 -10 -10 -10 -10 -10 -10 -10 -10 -10 -10 -10 -10 -10 -10 -10 -10 -10 -10
-9 -9 -9 -9 -9 -9 -9 -10 -10 -10 -10 -10 -10 -10 -10 -10 -10 -10 -10 -10 -10 -10 -10 -10 -10 -10 -10 -10 -10 -10 -10 -10 -10 -10 -10 -10 -10 -10 -10 -10 -10 -10 -10 -10 -10 -10 -10 -10 -10
-9 -9 -9 -9 -9 -9 -10 -10 -10 -10 -10 -11 -10 -10 -10 -10 -10 -10 -10 -10 -10 -10 -10 -10 -10 -10 -10 -10 -10 -10 -10 -10 -10 -10 -10 -10 -10 -10 -10 -10 -10 -10 -10 -10 -10 -10 -10 -10 -10
-9 -9 -10 -10 -10 -10 -10 -10 -10 -10 -11 -11 -10 -10 -10 -10 -10 -10 -11 -10 -10 -10 -10 -10 -10 -10 -10 -10 -10 -10 -10 -10 -10 -10 -10 -10 -10 -10 -10 -10 -10 -10 -10 -10 -10 -10 -10 -10 -10
-9 -9 -10 -10 -10 -10 -10 -10 -10 -11 -11 -11 -11 -10 -10 -10 -10 -10 -11 -11 -11 -11 -10 -10 -10 -11 -10 -10 -10 -10 -10 -10 -10 -10 -10 -10 -10 -10 -10 -10 -10 -10 -10 -10 -10 -10 -10 -10 -10
-10 -10 -10 -10 -10 -10 -10 -10 -10 -11 -11 -12 -11 -11 -10 -11 -11 -11 -11 -11 -11 -11 -11 -11 -11 -11 -10 -10 -10 -11 -11 -11 -11 -11 -10 -10 -10 -10 -10 -11 -10 -10 -10 -10 -10 -10 -10 -10 -10
-10 -10 -10 -10 -10 -10 -10 -10 -10 -10 -11 -11 -11 -11 -11 -11 -11 -11 -11 -11 -11 -11 -11 -11 -11 -11 -11 -11 -10 -11 -11 -11 -11 -11 -11 -11 -10 -11 -10 -10 -10 -10 -10 -10 -10 -10 -10 -10 -10
-10 -10 -10 -10 -10 -10 -10 -10 -10 -10 -11 -11 -11 -11 -11 -11 -11 -11 -11 -11 -11 -11 -11 -11 -10 -10 -10 -10 -11 -11 -11 -11 -11 -11 -11 -11 -11 -11 -11 -11 -10 -10 -10 -10 -10 -10 -10 -10 -10
-10 -10 -10 -11 -11 -11 -11 -11 -10 -10 -11 -11 -11 -11 -11 -11 -11 -11 -11 -11 -11 -11 -11 -11 -10 -10 -10 -10 -11 -11 -11 -11 -11 -11 -11 -11 -11 -11 -11 -11 -11 -11 -10 -10 -10 -10 -10 -10 -10
-10 -10 -10 -11 -11 -11 -11 -10 -10 -11 -11 -11 -11 -11 -11 -11 -11 -11 -11 -11 -11 -11 -10 -10 -10 -10 -10 -10 -11 -11 -11 -11 -11 -11 -11 -11 -11 -11 -11 -11 -11 -10 -10 -11 -10 -10 -10 -10 -10
-10 -10 -10 -11 -11 -10 -11 -10 -11 -11 -11 -10 -11 -11 -11 -11 -11 -11 -11 -11 -11 -11 -11 -10 -10 -10 -10 -11 -11 -11 -11 -11 -11 -11 -11 -11 -11 -11 -11 -11 -11 -11 -11 -11 -10 -10 -10 -10 -10
-10 -10 -10 -10 -10 -10 -10 -10 -11 -11 -11 -11 -11 -11 -11 -11 -10 -10 -10 -10 -11 -10 -11 -11 -11 -11 -11 -11 -11 -11 -11 -11 -11 -11 -12 -11 -11 -11 -11 -11 -11 -11 -11 -11 -11 -11 -11 -10 -10
-11 -10 -10 -10 -10 -10 -10 -10 -10 -11 -10 -10 -11 -11 -10 -11 -11 -10 -10 -10 -11 -11 -11 -10 -10 -10 -10 -11 -11 -11 -11 -11 -11 -11 -11 -12 -12 -12 -11 -11 -11 -11 -11 -11 -11 -11 -11 -11 -11
-11 -10 -10 -10 -11 -10 -9 -9 -10 -10 -10 -11 -11 -11 -11 -10 -10 -10 -10 -10 -10 -10 -10 -11 -10 -10 -11 -11 -11 -11 -11 -11 -11 -11 -11 -12 -12 -12 -11 -11 -11 -12 -12 -12 -12 -12 -11 -11 -11
-11 -11 -11 -11 -11 -10 -10 -9 -10 -10 -10 -11 -11 -11 -11 -10 -10 -10 -10 -10 -10 -10 -10 -11 -11 -10 -10 -10 -11 -11 -11 -11 -11 -11 -11 -11 -12 -12 -11 -11 -11 -12 -12 -12 -12 -12 -12 -11 -11
-11 -11 -10 -11 -11 -10 -10 -9 -10 -10 -11 -11 -12 -11 -11 -10 -10 -10 -10 -10 -10 -11 -11 -11 -11 -11 -11 -10 -10 -11 -11 -11 -11 -11 -11 -11 -11 -12 -12 -12 -12 -12 -12 -12 -12 -11 -11 -11 -11
-12 -11 -11 -11 -11 -11 -10 -10 -10 -11 -11 -11 -11 -11 -10 -11 -11 -11 -11 -11 -11 -11 -11 -11 -11 -10 -11 -11 -11 -11 -11 -11 -11 -11 -11 -11 -11 -11 -11 -12 -12 -12 -12 -11 -11 -11 -11 -11 -11
-12 -12 -12 -12 -12 -12 -11 -10 -11 -12 -12 -12 -12 -11 -11 -11 -11 -11 -11 -11 -10 -11 -11 -11 -12 -12 -11 -12 -12 -12 -12 -11 -11 -11 -11 -11 -11 -11 -11 -11 -11 -11 -11 -11 -11 -11 -11 -11 -11
-13 -13 -13 -13 -13 -13 -13 -13 -11 -12 -12 -11 -12 -13 -13 -13 -13 -12 -12 -12 -11 -11 -12 -12 -12 -12 -13 -12 -12 -12 -12 -12 -12 -11 -11 -11 -11 -11 -11 -11 -11 -11 -12 -12 -12 -12 -11 -11 -11
-14 -13 -13 -14 -14 -12 -13 -13 -13 -13 -14 -12 -13 -13 -14 -15 -15 -14 -14 -13 -12 -12 -12 -13 -13 -13 -13 -13 -13 -13 -12 -12 -12 -12 -12 -11 -12 -12 -12 -12 -11 -11 -11 -12 -12 -12 -12 -12 -12
-15 -15 -14 -14 -15 -13 -15 -13 -13 -14 -14 -14 -15 -15 -16 -16 -16 -15 -15 -14 -14 -14 -14 -14 -14 -13 -13 -13 -13 -13 -13 -13 -13 -13 -12 -12 -12 -12 -13 -12 -12 -12 -12 -12 -12 -12 -12 -12 -12
-16 -16 -16 -16 -15 -15 -15 -14 -13 -15 -14 -14 -15 -16 -16 -17 -17 -17 -16 -16 -15 -15 -16 -16 -15 -14 -14 -14 -13 -13 -13 -14 -14 -13 -14 -14 -13 -13 -13 -12 -12 -13 -13 -13 -13 -12 -12 -12 -12
-17 -17 -17 -17 -17 -16 -15 -15 -15 -16 -15 -15 -15 -15 -15 -15 -16 -16 -16 -16 -16 -16 -16 -16 -16 -16 -15 -15 -14 -14 -14 -14 -14 -14 -14 -14 -14 -14 -14 -14 -13 -13 -13 -13 -13 -13 -13 -14 -14
-18 -18 -18 -18 -19 -19 -17 -16 -16 -17 -17 -16 -16 -16 -16 -16 -17 -18 -18 -18 -18 -19 -19 -18 -17 -17 -17 -17 -17 -16 -16 -16 -16 -16 -15 -15 -15 -15 -15 -15 -14 -14 -13 -13 -14 -14 -14 -14 -14
-19 -18 -19 -19 -19 -19 -20 -19 -18 -18 -19 -18 -18 -18 -18 -18 -18 -19 -19 -19 -19 -19 -19 -19 -18 -18 -18 -18 -18 -18 -18 -18 -18 -17 -17 -16 -16 -16 -16 -16 -16 -16 -15 -14 -14 -14 -14 -15 -15
-19 -19 -20 -21 -20 -20 -21 -20 -20 -19 -19 -20 -20 -20 -21 -20 -20 -20 -20 -20 -20 -19 -20 -19 -19 -19 -19 -19 -19 -19 -19 -19 -19 -18 -18 -19 -18 -17 -17 -16 -16 -16 -16 -16 -16 -16 -15 -15 -15
Height
5868 5867 5866 5865 5867 5864 5862 5862 5861 5860 5858 5857 5856 5855 5854 5853 5852 5853 5850 5849 5849 5848 5848 5847 5847 5847 5846 5845 5845 5845 5845 5846 5847 5847 5849 5850 5851 5852 5853 5853 5854 5855 5856 5857 5858 5859 5860 5860 5861
5868 5867 5866 5866 5866 5864 5864 5862 5861 5860 5859 5857 5856 5855 5854 5853 5852 5850 5849 5849 5848 5848 5847 5847 5847 5846 5847 5846 5846 5846 5846 5846 5847 5848 5849 5849 5850 5851 5852 5853 5854 5855 5856 5856 5857 5858 5859 5860 5861
5868 5868 5868 5866 5865 5864 5864 5863 5862 5860 5858 5857 5855 5854 5853 5853 5852 5850 5849 5848 5847 5847 5847 5846 5847 5846 5846 5846 5846 5846 5846 5846 5847 5847 5848 5849 5849 5850 5851 5852 5853 5854 5854 5855 5856 5857 5858 5859 5860
5869 5869 5868 5867 5865 5864 5863 5862 5862 5860 5858 5856 5854 5854 5853 5852 5851 5850 5849 5849 5847 5847 5846 5845 5845 5845 5845 5845 5845 5845 5846 5846 5846 5847 5848 5848 5849 5849 5850 5850 5852 5852 5853 5854 5855 5856 5857 5858 5859
5869 5868 5867 5866 5865 5863 5862 5860 5860 5859 5857 5856 5855 5854 5853 5852 5850 5850 5849 5848 5847 5846 5845 5844 5844 5844 5844 5844 5844 5844 5844 5844 5845 5845 5846 5847 5848 5848 5848 5850 5850 5851 5853 5853 5855 5856 5857 5858 5858
5868 5866 5866 5865 5864 5862 5860 5859 5858 5857 5856 5855 5854 5852 5852 5850 5849 5848 5847 5846 5846 5845 5845 5844 5844 5843 5842 5842 5842 5843 5843 5843 5843 5843 5844 5845 5845 5846 5847 5848 5848 5849 5850 5852 5853 5854 5855 5856 5856
5865 5864 5863 5862 5861 5860 5858 5857 5856 5854 5853 5852 5852 5851 5849 5848 5847 5846 5845 5845 5844 5843 5843 5842 5842 5841 5841 5841 5841 5840 5841 5841 5841 5841 5842 5842 5843 5844 5844 5845 5846 5847 5848 5849 5849 5850 5851 5852 5853
5862 5861 5861 5860 5859 5857 5855 5854 5853 5851 5849 5848 5848 5848 5845 5845 5844 5843 5843 5842 5842 5842 5841 5840 5839 5839 5838 5838 5839 5839 5838 5838 5838 5838 5839 5840 5840 5841 5842 5842 5843 5844 5845 5846 5846 5847 5848 5849 5849
5859 5859 5858 5857 5856 5853 5852 5850 5849 5848 5846 5843 5845 5843 5842 5841 5840 5839 5838 5838 5838 5838 5838 5837 5836 5835 5835 5835 5835 5835 5836 5836 5836 5835 5835 5836 5837 5837 5838 5838 5839 5840 5841 5842 5842 5843 5844 5845 5846
5854 5855 5853 5852 5851 5850 5848 5847 5845 5845 5843 5840 5840 5837 5837 5836 5836 5835 5833 5832 5832 5832 5832 5832 5832 5831 5831 5831 5831 5831 5831 5831 5832 5832 5832 5832 5833 5833 5834 5834 5834 5835 5836 5837 5838 5838 5839 5840 5841
5850 5849 5847 5847 5845 5845 5844 5842 5842 5840 5841 5837 5834 5834 5832 5832 5831 5830 5828 5826 5825 5825 5824 5825 5825 5826 5827 5826 5827 5828 5827 5828 5828 5828 5828 5828 5828 5829 5829 5829 5829 5830 5831 5831 5832 5833 5834 5835 5836
5845 5845 5842 5841 5839 5839 5837 5837 5836 5835 5838 5829 5829 5830 5829 5827 5826 5824 5823 5821 5819 5817 5817 5819 5820 5820 5821 5820 5821 5821 5822 5822 5823 5823 5824 5823 5824 5824 5824 5824 5824 5824 5825 5826 5826 5827 5828 5828 5829
5839 5840 5837 5835 5833 5831 5829 5831 5825 5833 5829 5825 5825 5824 5823 5822 5821 5818 5816 5814 5813 5814 5814 5814 5815 5816 5816 5816 5814 5815 5815 5816 5816 5817 5818 5817 5818 5818 5817 5818 5818 5819 5819 5819 5820 5821 5821 5822 5823
5832 5831 5830 5829 5826 5823 5820 5824 5818 5826 5818 5821 5819 5819 5818 5816 5813 5810 5807 5807 5808 5809 5808 5807 5808 5808 5809 5809 5808 5808 5808 5809 5809 5810 5810 5810 5810 5811 5811 5811 5811 5812 5812 5813 5813 5814 5814 5815 5816
5824 5821 5823 5823 5819 5813 5809 5818 5815 5813 5811 5813 5813 5812 5810 5807 5805 5801 5800 5802 5801 5802 5801 5801 5800 5799 5800 5801 5801 5801 5801 5801 5802 5801 5802 5802 5802 5803 5802 5803 5804 5804 5804 5805 5805 5806 5807 5807 5808
5815 5812 5811 5816 5814 5806 5799 5800 5811 5804 5803 5805 5806 5804 5800 5801 5796 5792 5794 5795 5794 5794 5794 5794 5792 5791 5790 5791 5791 5792 5793 5794 5794 5794 5794 5794 5793 5793 5793 5794 5795 5795 5796 5796 5797 5798 5798 5798 5799
5806 5800 5801 5802 5807 5800 5790 5786 5799 5801 5796 5796 5797 5795 5793 5791 5787 5785 5785 5784 5783 5784 5785 5785 5785 5784 5782 5781 5781 5783 5783 5785 5785 5785 5786 5786 5785 5784 5784 5785 5785 5786 5787 5788 5789 5789 5789 5790 5790
5795 5792 5791 5788 5796 5792 5781 5779 5779 5789 5789 5788 5788 5785 5784 5783 5780 5777 5777 5777 5775 5775 5776 5776 5776 5775 5774 5773 5771 5773 5774 5774 5774 5774 5776 5775 5775 5775 5775 5775 5775 5775 5776 5778 5778 5778 5779 5781 5782
5786 5782 5779 5782 5781 5776 5777 5775 5773 5770 5777 5779 5778 5776 5774 5772 5772 5771 5769 5766 5766 5766 5765 5765 5765 5766 5765 5765 5764 5762 5762 5763 5764 5764 5764 5764 5765 5765 5765 5767 5766 5766 5766 5766 5766 5768 5769 5770 5772
5775 5771 5769 5769 5768 5766 5765 5762 5765 5762 5765 5766 5769 5765 5763 5762 5764 5762 5760 5758 5756 5755 5755 5756 5756 5755 5755 5755 5755 5756 5755 5753 5753 5752 5753 5755 5754 5754 5754 5755 5756 5758 5757 5756 5756 5756 5757 5758 5760
5765 5760 5759 5757 5755 5756 5749 5751 5751 5752 5753 5752 5753 5753 5753 5754 5754 5754 5753 5751 5749 5748 5746 5745 5744 5743 5743 5744 5744 5745 5745 5746 5744 5743 5742 5744 5744 5744 5743 5743 5743 5745 5746 5748 5749 5748 5748 5746 5747
5755 5757 5753 5750 5747 5743 5739 5735 5741 5740 5740 5734 5735 5740 5740 5741 5742 5743 5743 5741 5739 5737 5736 5735 5734 5734 5734 5733 5734 5735 5735 5734 5734 5733 5733 5733 5733 5733 5733 5733 5732 5734 5735 5735 5737 5737 5738 5736 5737
5745 5742 5744 5742 5737 5733 5731 5726 5728 5727 5724 5721 5724 5725 5724 5723 5724 5724 5725 5728 5727 5727 5726 5725 5725 5725 5723 5723 5723 5721 5721 5722 5723 5722 5721 5721 5721 5721 5720 5721 5722 5723 5723 5722 5724 5724 5724 5724 5723
5736 5733 5728 5726 5725 5724 5724 5724 5722 5715 5713 5711 5711 5711 5710 5712 5714 5714 5713 5712 5712 5713 5711 5712 5712 5710 5710 5711 5710 5709 5708 5708 5707 5707 5707 5707 5705 5706 5707 5707 5706 5708 5710 5711 5710 5711 5711 5711 5712
5723 5721 5716 5714 5714 5714 5711 5709 5711 5708 5709 5705 5703 5701 5701 5702 5702 5703 5701 5701 5700 5696 5697 5700 5698 5696 5695 5694 5695 5694 5693 5691 5690 5691 5690 5691 5692 5690 5689 5690 5692 5692 5694 5695 5695 5696 5698 5698 5698
5710 5708 5706 5697 5701 5699 5703 5695 5701 5696 5698 5696 5693 5693 5692 5690 5689 5690 5691 5690 5688 5683 5680 5681 5682 5683 5681 5679 5677 5676 5676 5675 5674 5673 5672 5672 5673 5674 5674 5673 5673 5674 5675 5676 5676 5678 5680 5682 5683
5699 5697 5694 5683 5686 5678 5686 5687 5690 5687 5680 5681 5676 5674 5676 5673 5671 5669 5669 5669 5668 5666 5663 5662 5661 5661 5661 5661 5661 5658 5656 5655 5655 5654 5655 5654 5654 5654 5654 5656 5656 5654 5655 5656 5658 5658 5660 5662 5665
5682 5681 5676 5674 5665 5662 5665 5671 5671 5673 5662 5663 5661 5657 5653 5653 5651 5648 5647 5646 5644 5644 5643 5642 5640 5638 5638 5639 5639 5638 5637 5636 5635 5633 5633 5633 5632 5634 5633 5634 5636 5637 5636 5637 5637 5640 5641 5642 5645
5666 5666 5663 5659 5655 5647 5646 5650 5657 5653 5649 5644 5640 5639 5636 5634 5633 5630 5627 5625 5622 5621 5621 5621 5620 5619 5619 5619 5618 5617 5616 5616 5614 5614 5613 5613 5612 5611 5611 5611 5611 5614 5617 5617 5617 5618 5620 5622 5624
5648 5649 5649 5641 5638 5633 5630 5626 5633 5636 5635 5629 5624 5618 5617 5615 5613 5610 5608 5605 5604 5602 5600 5598 5597 5596 5595 5595 5595 5594 5594 5594 5594 5593 5592 5593 5593 5593 5593 5592 5591 5592 5591 5592 5595 5596 5598 5602 5603
Wind_Speed
7 8 10 11 12 13 12 10 9 8 7 7 8 9 10 9 9 8 7 5 7 5 4 3 2 1 0 1 2 4 7 9 10 12 13 15 15 14 14 16 20 16 14 16 17 16 17 16 16
6 7 8 9 9 11 10 9 8 7 8 7 6 6 6 7 7 7 7 7 7 8 8 7 6 6 5 4 3 4 6 7 8 8 9 9 11 15 17 18 17 15 15 16 16 17 18 17 18
5 6 7 8 9 8 7 7 7 7 6 6 5 5 5 5 6 7 7 7 7 8 9 10 9 9 9 8 7 7 6 6 6 8 9 10 11 11 13 16 17 18 18 18 18 18 18 18 19
5 6 7 8 9 8 7 7 6 6 7 8 7 5 6 7 5 6 6 6 6 6 8 9 12 12 12 12 12 12 11 11 10 10 9 10 11 11 12 13 14 14 16 17 17 17 18 19 18
9 9 10 12 11 11 11 11 9 9 10 11 11 10 8 7 8 7 6 7 7 7 6 7 9 11 14 15 14 15 16 14 14 14 13 13 13 13 13 14 15 15 16 16 16 15 15 16 16
12 13 13 14 16 16 16 15 14 14 14 14 15 16 14 12 11 12 11 10 9 9 10 8 8 9 10 14 16 17 17 18 18 18 17 16 16 15 16 16 16 16 16 16 16 15 15 16 16
16 17 17 16 17 18 19 19 19 20 20 19 19 20 20 19 17 16 16 15 14 13 12 12 12 12 11 11 13 16 18 20 20 20 20 20 20 19 19 19 19 19 20 20 20 19 19 19 19
20 19 19 19 20 21 20 21 21 21 24 24 22 22 24 22 23 22 21 21 20 18 17 16 16 15 14 14 14 13 15 17 20 21 22 23 22 23 24 24 24 24 24 23 23 23 22 21 20
22 21 21 21 21 23 21 23 21 23 24 26 23 25 26 25 25 26 27 25 25 24 22 22 21 21 19 17 17 16 16 16 16 18 20 21 22 24 25 27 28 28 28 28 27 26 25 25 25
23 21 23 23 24 23 24 23 24 23 24 26 25 26 25 25 26 27 29 29 29 29 28 27 25 26 25 23 22 20 19 18 19 19 20 19 20 21 22 25 27 29 30 31 31 30 29 28 28
21 21 24 24 27 27 26 26 24 25 22 27 31 28 28 26 23 24 26 29 31 31 32 32 30 28 28 29 29 26 24 23 23 22 23 22 22 23 24 25 24 26 28 30 32 33 34 33 32
25 26 28 28 29 29 30 29 29 28 22 31 31 29 29 28 25 25 27 27 29 31 32 31 30 28 28 31 33 32 30 29 28 28 27 27 26 26 27 27 27 28 28 28 29 32 34 35 35
30 31 33 32 31 31 33 31 38 26 29 34 33 31 31 30 29 29 28 29 28 28 28 29 29 29 29 29 32 32 34 33 33 32 31 32 31 31 31 31 31 30 29 29 30 31 32 33 35
36 35 33 32 33 35 37 33 39 28 37 34 35 35 34 34 33 33 34 31 29 29 30 31 30 32 31 28 27 27 28 30 32 33 34 36 35 35 36 35 35 34 34 33 32 32 33 34 35
37 39 36 33 36 39 43 33 34 36 38 36 36 35 35 36 37 38 37 33 33 31 31 32 34 35 34 33 32 29 28 28 27 29 31 33 35 36 37 38 38 38 37 36 36 36 35 35 36
41 44 42 36 34 42 48 45 32 38 39 36 34 34 37 35 40 44 40 37 36 35 34 33 34 37 38 38 37 35 34 31 28 29 29 30 33 34 36 37 38 40 40 40 39 39 38 37 36
46 49 46 43 35 41 50 52 40 35 38 36 34 36 38 39 43 42 41 41 41 39 36 34 33 34 38 40 39 39 38 36 35 32 30 32 35 37 38 37 38 39 40 40 40 41 41 39 38
49 50 50 51 40 43 52 50 48 41 39 36 34 36 38 39 39 41 41 41 43 42 38 35 35 36 38 41 42 40 40 40 40 39 35 36 38 41 41 39 39 39 39 38 39 40 43 42 41
49 52 53 51 51 55 51 51 52 52 44 40 36 35 37 39 39 39 41 41 39 38 39 39 36 33 34 37 39 41 41 42 42 43 42 40 40 42 44 41 42 40 39 40 41 42 43 44 44
49 54 57 56 56 58 57 56 50 50 46 39 37 38 41 42 40 41 42 43 42 39 37 39 40 41 39 38 41 41 42 42 42 44 45 44 44 43 44 43 44 43 46 46 45 44 44 45 46
53 55 56 58 59 59 64 61 58 54 50 45 44 44 42 40 41 41 43 46 45 44 43 42 42 45 44 40 39 41 41 42 46 45 46 44 48 48 49 50 50 48 49 49 49 48 47 46 46
53 52 56 58 59 62 66 69 62 60 60 61 57 53 52 48 45 46 46 46 50 47 46 43 41 40 41 43 38 37 38 42 43 42 43 45 49 52 54 54 53 52 52 52 51 52 52 51 49
53 54 54 55 59 62 62 66 66 63 64 64 60 56 55 55 52 50 49 44 46 47 44 44 47 48 45 46 48 49 49 45 48 46 45 46 47 50 52 54 56 55 53 53 54 55 56 57 57
51 54 54 55 56 60 61 60 63 62 61 65 65 63 55 42 38 39 40 44 46 45 45 52 54 55 55 54 53 54 53 52 51 52 53 52 50 51 53 55 56 56 56 57 58 59 60 62 62
53 55 60 60 60 62 59 63 63 65 62 64 61 61 49 43 39 41 42 46 51 51 59 63 61 60 61 61 60 59 59 56 55 54 54 56 58 58 58 58 58 60 61 61 62 63 63 63 64
55 54 56 61 61 64 61 68 66 67 66 65 65 62 60 55 55 53 51 54 64 72 74 68 64 62 65 67 67 68 66 63 61 61 60 60 61 62 65 66 67 67 67 68 68 68 68 67 67
54 54 55 60 58 64 65 66 63 63 67 66 66 69 71 70 69 67 62 64 67 68 68 63 65 65 65 68 72 73 72 72 70 67 66 66 69 70 66 70 73 73 73 74 74 73 73 72 71
52 52 52 53 58 63 62 64 65 61 66 66 66 66 69 70 69 65 63 61 58 58 61 67 67 65 63 65 65 66 69 69 70 70 70 70 74 73 72 72 73 75 76 77 77 76 76 76 74
55 57 57 58 62 65 64 61 61 59 61 64 66 65 67 70 69 67 66 65 66 65 67 69 71 70 70 70 70 74 73 69 71 73 74 74 77 78 77 78 77 75 75 79 80 82 81 78 74
59 56 55 54 58 61 58 50 51 60 61 62 64 69 73 73 73 76 75 75 74 73 75 76 77 77 74 73 74 76 73 70 76 79 78 77 76 77 79 84 84 83 81 79 79 77 79 81 77
Wind_Direction
63 64 63 60 54 46 48 45 41 38 38 35 31 21 13 7 355 331 297 276 261 263 267 255 241 244 90 71 201 204 214 221 231 233 224 219 213 204 210 212 206 216 215 220 221 230 232 227 228
62 61 52 51 50 45 39 32 35 33 25 23 22 13 7 353 360 356 344 303 277 257 253 254 244 238 225 219 220 217 219 221 221 228 236 235 224 215 211 210 210 214 217 222 222 230 236 234 234
38 36 26 26 27 33 30 23 11 8 5 2 358 358 355 355 345 348 350 345 309 276 260 248 249 248 241 231 227 225 229 228 221 227 229 230 234 234 230 226 220 215 215 222 222 225 229 230 234
2 358 352 350 350 345 341 338 337 336 324 316 317 323 325 336 338 331 323 326 323 311 281 265 248 243 244 243 237 235 228 231 235 234 232 231 231 237 238 238 234 230 227 228 227 224 225 225 224
325 320 320 318 317 313 313 311 313 306 295 294 300 305 303 311 315 315 319 315 306 306 301 291 275 253 243 241 240 241 241 235 237 241 239 236 233 232 236 239 241 238 235 233 237 236 235 235 234
307 304 305 305 305 304 300 300 301 296 291 291 292 294 296 292 293 298 299 298 299 299 296 294 289 281 267 254 246 241 243 243 240 239 242 243 241 237 237 237 235 237 235 234 236 239 242 242 241
296 293 295 296 296 297 296 297 296 294 289 288 286 285 288 290 290 287 290 289 286 289 289 289 285 281 278 273 265 257 249 244 242 242 242 243 247 247 244 242 241 239 238 237 239 245 247 249 248
290 290 291 294 295 295 298 297 294 290 290 288 286 284 281 286 287 285 285 285 285 282 285 286 286 282 278 277 273 269 263 257 252 247 245 245 245 246 247 247 246 243 244 247 247 246 246 243 240
288 291 293 292 291 292 293 294 291 291 289 287 290 289 289 285 283 283 283 283 282 281 278 280 279 277 275 274 273 273 269 270 267 264 259 258 256 254 251 249 248 247 247 246 249 251 250 248 246
286 292 291 289 289 288 291 291 291 294 291 288 294 289 290 288 287 284 283 283 280 279 278 276 272 273 273 272 272 272 271 269 266 266 267 265 263 263 263 260 256 252 251 251 251 251 253 254 255
282 289 287 287 286 287 287 283 286 287 297 289 287 290 291 289 289 286 282 281 278 275 274 274 273 271 272 274 271 270 270 270 271 271 271 271 272 272 270 268 267 266 261 257 256 255 254 254 255
283 287 288 287 286 288 285 283 281 285 295 284 288 295 294 292 291 287 286 284 282 277 274 272 271 270 273 272 271 269 269 269 268 268 270 273 272 273 272 272 272 270 267 267 264 261 259 259 259
281 286 287 285 284 282 279 282 282 291 282 279 289 291 294 296 292 289 287 285 284 284 284 279 273 274 278 281 276 269 268 270 272 271 271 271 271 271 272 272 271 270 270 268 268 267 265 264 264
287 287 287 288 285 281 278 282 285 286 278 283 286 290 294 294 289 285 278 276 279 281 280 278 277 274 276 280 280 274 271 272 273 272 270 269 270 270 270 271 270 271 270 269 269 270 269 268 268
287 286 287 290 288 288 285 282 281 278 279 281 285 287 286 283 283 279 278 277 276 275 274 275 274 275 277 276 277 275 269 268 271 270 270 271 270 270 270 270 270 269 269 269 269 269 271 271 270
288 288 286 284 288 292 289 286 277 280 283 285 284 282 277 276 278 279 282 281 280 283 282 276 270 270 270 270 270 271 270 269 267 264 264 266 268 268 268 268 268 267 268 268 269 269 269 271 273
289 286 286 286 286 288 285 285 287 283 285 281 280 279 275 275 274 277 281 283 282 281 277 276 273 271 272 270 267 266 267 267 268 264 260 260 264 264 265 267 266 265 265 267 269 270 270 269 271
285 287 288 287 287 279 280 286 289 289 278 282 281 277 276 272 273 276 278 278 279 280 278 273 272 271 268 268 270 268 267 266 264 263 260 258 260 262 263 264 264 263 263 266 268 268 269 269 271
282 284 283 284 285 284 283 285 289 292 290 289 284 278 275 274 274 272 277 278 274 273 274 272 266 263 268 265 266 266 264 263 263 263 258 255 258 261 263 264 263 262 261 261 262 265 267 268 270
278 279 281 284 285 283 285 282 284 285 292 292 286 277 275 272 273 273 273 275 275 271 267 270 268 268 264 262 262 264 266 264 262 261 262 260 257 257 261 261 261 260 260 258 259 261 264 267 269
273 275 277 282 283 284 288 287 286 287 286 286 282 278 274 276 276 272 272 275 272 272 270 268 264 266 270 262 258 258 262 267 266 265 265 263 261 259 260 261 260 259 261 263 263 264 265 265 266
276 279 281 282 282 285 286 287 288 289 291 288 286 286 286 283 276 272 269 274 273 270 268 265 262 262 261 261 252 253 264 268 266 266 268 268 266 265 265 264 265 265 266 265 264 265 266 266 266
278 281 281 281 282 283 283 288 293 294 291 288 292 295 296 294 291 285 282 280 268 262 263 267 269 270 264 259 263 266 269 268 266 262 259 261 265 269 269 270 271 268 266 266 266 265 266 265 265
283 283 282 281 281 279 285 289 288 290 291 294 296 294 295 291 279 275 259 256 243 242 259 273 273 270 267 268 268 266 267 268 266 264 264 261 257 258 261 265 266 267 268 269 269 267 267 267 266
283 283 284 282 282 285 285 280 279 282 288 289 290 291 290 284 276 272 257 247 237 243 261 275 273 269 268 268 267 269 272 270 266 265 261 261 263 261 258 259 260 262 264 265 266 267 268 268 268
282 280 278 281 280 278 276 278 284 286 287 286 287 285 283 281 279 273 258 253 253 265 276 276 268 267 269 268 266 266 268 272 271 268 265 263 261 260 260 259 259 259 259 260 261 263 264 266 267
283 283 283 281 278 276 281 281 280 283 283 282 280 278 277 279 278 279 279 276 272 271 275 275 276 274 271 266 265 267 266 266 267 269 266 264 264 264 263 260 256 256 257 259 259 259 262 266 265
287 286 283 281 280 281 283 286 289 288 285 283 282 282 281 279 279 280 279 276 274 272 270 271 274 275 274 273 269 265 266 266 267 267 265 264 259 263 265 265 260 257 256 257 260 261 261 261 263
283 284 283 279 279 281 283 283 288 283 277 277 279 278 277 277 277 276 274 267 265 266 266 268 270 271 272 271 269 270 274 262 261 259 259 261 260 262 267 267 265 260 257 257 257 258 259 259 259
287 287 282 276 282 283 285 280 274 278 276 272 276 277 275 274 274 273 269 270 266 269 272 270 272 274 272 272 273 272 269 263 259 255 258 259 258 257 257 258 261 263 263 264 263 259 258 259 258